close

Jackpot

Texas Poker Multi Jackpot System

Kini Telah hadir Jackpot SUPER ROYAL FLUSH

Kini Telah hadir Jackpot 2000 (khusus table VIP keatas).

Ikutilah global jackpot yang tersedia di system kami, dengan system jackpot terbaru dan pertama di indonesia, anda dapat membeli jackpot dengan harga 100 rupiah saja dan menangkan hadiahnya hingga puluhan juta rupiah.

Jackpot bukanlah suatu keharusan untuk dibeli, namun kami memberikan suatu fitur tambahan untuk member tercinta dari www.anekapoker.com.

Terdapat tiga pilihan harga jackpot yang bisa anda beli yaitu :100,500,1000 dan 2000(khusus table VIP Keatas) rupiah.

Hadiah dari Multi jackpot system www.anekapoker.com

  1. full house x 10 harga jackpot yang anda beli.
      (contoh:anda membeli 1000 maka:1000 X10 = 10.000)
  2. four of kind x 250 harga jackpot yang anda beli
      (contoh:anda membeli 1000 maka:1000 X250 = 250.000)
  3. Straight flush x 1200
      (contoh:anda membeli 1000 maka:1000 X1200 = 1.200.000)
  4. Royal flush x 10000 harga jackpot yang anda beli
      (contoh:anda membeli 1000 maka:1000 X10000 = 10.000.000)
  5. SUPER ROYAL FLUSH x 30000 harga jackpot yang anda beli
      (contoh:anda membeli 1000 maka:1000 X30000 = 30.000.000)

Kondisi kartu

  1. full house adalah kondisi kartu dimana kartu anda dan kartu tengah dengan total 7 kartu bisa mendapatkan nilai 5 kartu dengan kombinasi 1 tris(three of kind) dan 1 pair, contoh 3 kartu 10 dan 2 kartu 5
  2. Four of kind adalah kondisi kartu dimana kartu anda dan kartu tengah dengan total 7 kartu bisa mendapatkan nilai 5 kartu dengan kombinasi 4 kartu yang sama jumlah dan 1 kartu apapun juga contoh anda mendapatkan 4 buah kartu angka 3 dan 1 kartu apapun.
  3. Staright flush adalah kondisi kartu dimana kartu anda dan kartu tengah dengan total 7 kartu bisa mendapatkan nilai 5 kartu dengan kombinasi seri / staright dengan kembang yang sama contoh : urutan kartu dari angka 5, 6, 7, 8 , 9 10 dengan kembang yg sama misalnya as hati
  4. Royal flush adalah kondisi kartu dimana kartu anda dan kartu tengah dengan total 7 kartu bisa mendapatkan nilai 5 kartu dengan kombinasi seri / staright dengan kembang yang sama tetapi kartu tersebut haruslah dimulai dari 10. contoh 10, Queen, Jack, King dan aces dengan kembang yang sama
  5. Super Royal flush adalah kondisi kartu dimana Kedua kartu anda digabung dengan 3 kartu pertama meja haruslah royal flush. contoh kartu anda 10,Queen kembang sama dan 3 kartu pertama meja adalah Jack, King dan aces dengan kembang yang sama

Demikian adalah penjelasan dari Multi Jackpot www.anekapoker.com terima kasih dan selamat bermain salam hoki dari kami

Texas Poker Jackpot Winner

TOP SUPER ROYAL FLUSH
No.TanggalNamaPriceWin
117/07 02:43JOZZZ99Super Royal flush6,000,000
217/07 01:45SOSIM8899Super Royal flush15,000,000
316/07 23:46AA7C7D8ESuper Royal flush15,000,000
416/07 23:31KOKO_887Super Royal flush60,000,000
516/07 22:35BROTHERPROSuper Royal flush60,000,000
TOP ROYAL FLUSH
No.TanggalNamaPriceWin
117/07 02:53DR19Royal flush5,000,000
217/07 02:38CEUCEUWT99Royal flush5,000,000
317/07 02:37DIHK4ARoyal flush5,000,000
417/07 02:19AADRBCKE57Royal flush2,000,000
517/07 02:00VIA_VALLNRoyal flush2,000,000
TOP STRAIGHT FLUSH
No.TanggalNamaPriceWin
117/07 03:00CNP3XIS4HZStraight Flush1,200,000
217/07 02:59CAGC33BD8Straight Flush1,200,000
317/07 02:57GOOD261Straight Flush240,000
417/07 02:57BARAT444Straight Flush600,000
517/07 02:56UTUP666Straight Flush600,000
LATEST JACKPOT
No.TanggalNamaPriceWin
117/07 03:02DEXTROYERFull House20,000
217/07 03:02TITUS10Full House20,000
317/07 03:02KOININFull House2,000
417/07 03:02VBTERD863GFull House1,000
517/07 03:02TOFAT0PUFull House1,000
617/07 03:02DJWERRFull House5,000
717/07 03:02YAHUDI009Full House2,000
817/07 03:02LUPH07Full House2,000
917/07 03:02ADOADUN23Full House2,000
1017/07 03:02BUSO18Full House2,000
1117/07 03:02DOSQXSO1T2Four Of A Kind50,000
1217/07 03:02CANGKER21Full House10,000
1317/07 03:02RIKIAF09Full House5,000
1417/07 03:02SINAGA222Four Of A Kind125,000
1517/07 03:02WAJENWEJANFull House1,000
1617/07 03:02GEMBLERS9Full House2,000
1717/07 03:02BB1EAB2FFull House2,000
1817/07 03:02BASECAM221Full House2,000
1917/07 03:02RIAKU47Four Of A Kind250,000
2017/07 03:02JONBAY88Full House5,000
2117/07 03:02DARMAWAN09Full House5,000
2217/07 03:02A9F5VK7RFAFull House10,000
2317/07 03:02ZLEBEZ99Full House20,000
2417/07 03:02DANANG1000Full House10,000
2517/07 03:02RAPHAEL9Full House5,000
2617/07 03:02NDI_NDEHFull House1,000
2717/07 03:02INKUR77Full House5,000
2817/07 03:02INYONGE123Full House5,000
2917/07 03:02B00SDUTAFull House2,000
3017/07 03:01JUARO80Full House5,000
3117/07 03:01XX1SQUADFull House10,000
3217/07 03:01V105Four Of A Kind125,000
3317/07 03:01UA3XCRU2Y1Full House1,000
3417/07 03:01JUPITER210Four Of A Kind50,000
3517/07 03:01PACCI08Full House5,000
3617/07 03:01R4MP0K33Full House5,000
3717/07 03:01TERORBOM05Full House5,000
3817/07 03:01JSP_PROOFull House2,000
3917/07 03:01DWBT6877Full House10,000
4017/07 03:01PUTUT3877Full House2,000
4117/07 03:01P4MAN33Full House500
4217/07 03:01LAPIOK12Full House500
4317/07 03:01KU7CENFour Of A Kind50,000
4417/07 03:01CANTIKA99_Four Of A Kind50,000
4517/07 03:01TEMPOK000Four Of A Kind25,000
4617/07 03:01EZE1012784Four Of A Kind50,000
4717/07 03:01SURATROYALFour Of A Kind50,000
4817/07 03:01PROJP84Full House10,000
4917/07 03:01LUBAY1Full House2,000
5017/07 03:01KING_SLMANFull House2,000

Domino Multi Jackpot System

Ikutilah global jackpot yang tersedia di system kami, dengan system jackpot terbaru dan pertama di indonesia, anda dapat membeli jackpot dengan harga 100 rupiah saja dan menangkan hadiahnya hingga puluhan juta rupiah.

Jackpot bukanlah suatu keharusan untuk dibeli, namun kami memberikan suatu fitur tambahan untuk member tercinta dari www.anekapoker.com.

Terdapat tiga pilihan harga jackpot yang bisa anda beli yaitu :100,500 dan 1000 rupiah.

Hadiah dari Multi jackpot system www.anekapoker.com

  1. Murni Kecil x 50 harga jackpot yang anda beli.
      (contoh:anda membeli 1000 maka:1000 X 50 = 50.000)
  2. Murni Besar x 50 harga jackpot yang anda beli
      (contoh:anda membeli 1000 maka:1000 X 50 = 50.000)
  3. BALAK x 100 harga jackpot yang anda beli
      (contoh:anda membeli 1000 maka:1000 X 100 = 100.000)
  4. ENAM DEWA x 6666 harga jackpot yang anda beli
      (contoh:anda membeli 1000 maka:1000 X 6666 = 6.666.000)

Demikian adalah penjelasan dari Multi Jackpot www.anekapoker.com terima kasih dan selamat bermain salam hoki dari kami

Domino Jackpot Winner

TOP ENAM DEWA
No.TanggalNamaPriceWin
117/07 03:01KAYUU615murni enam6,666,000
217/07 02:46BUSET41murni enam6,666,000
317/07 01:53BALANDO87murni enam3,333,000
417/07 01:12CHALISA99murni enam6,666,000
517/07 01:10HERI77ANDAmurni enam6,666,000
TOP BALAK
No.TanggalNamaPriceWin
117/07 03:02JARAN30balak10,000
217/07 03:01DDBU4Sbalak10,000
317/07 03:00TJ0609balak100,000
417/07 02:58RICARDO26balak50,000
517/07 02:56MAKBO01balak100,000
LATEST JACKPOT
No.TanggalNamaPriceWin
117/07 03:02JARAN30balak10,000
217/07 03:02BOBI26murni besar50,000
317/07 03:01SUGI1985murni besar25,000
417/07 03:01NAGITAGITAmurni besar50,000
517/07 03:01DDBU4Sbalak10,000
617/07 03:01KAYUU615murni enam6,666,000
717/07 03:01DEWABIGmurni besar50,000
817/07 03:00SBS13RBJTJmurni besar50,000
917/07 03:00TJ0609balak100,000
1017/07 03:00YUDO567murni kecil25,000
1117/07 02:59UWA321murni besar50,000
1217/07 02:59REKOR1murni besar50,000
1317/07 02:58NOEL02murni besar50,000
1417/07 02:58WERWADmurni kecil50,000
1517/07 02:58ADJIK899murni besar25,000
1617/07 02:58RICARDO26balak50,000
1717/07 02:57CIMEEHmurni besar50,000
1817/07 02:57ACIM99murni besar25,000
1917/07 02:56YOFI88murni kecil5,000
2017/07 02:56GONYENGJRmurni kecil50,000
2117/07 02:56MAKBO01balak100,000
2217/07 02:55IRMAN9229murni besar5,000
2317/07 02:55SADOYO01murni besar50,000
2417/07 02:54GEMBUR68murni kecil50,000
2517/07 02:54CL4UD10lucky9925,000
2617/07 02:54SNI32498murni kecil50,000
2717/07 02:53SBS13RBJTJbalak100,000
2817/07 02:53LAKNATTTTmurni besar50,000
2917/07 02:53ANDI101014murni besar50,000
3017/07 02:52INDRA0101balak100,000
3117/07 02:52AA8DE1C2murni besar50,000
3217/07 02:52EDOLENJERmurni kecil50,000
3317/07 02:52BAHTIAR87murni kecil50,000
3417/07 02:51ANTO5_5balak50,000
3517/07 02:51HARRY272balak100,000
3617/07 02:51YLI6666murni besar25,000
3717/07 02:50EV072balak100,000
3817/07 02:50DANYODSAIKmurni kecil25,000
3917/07 02:50SEXKAUmurni kecil50,000
4017/07 02:49VALLENISTYmurni besar50,000
4117/07 02:49VJJJJJJmurni besar25,000
4217/07 02:49IBRO72murni kecil50,000
4317/07 02:49RANCA79murni besar5,000
4417/07 02:48VERENA98murni besar50,000
4517/07 02:48BLUCORRmurni besar50,000
4617/07 02:48RISABOY28murni besar50,000
4717/07 02:48JHONKEY2233murni kecil5,000
4817/07 02:47DOICUYbalak100,000
4917/07 02:47BERGABUNGBmurni kecil25,000
5017/07 02:47TOMOHON99murni kecil50,000

Ceme Multi Jackpot System

Jackpot dilihat dari gabungan kartu pemain dengan kartu bandar. Bandar harus membeli jackpot sebanyak jumlah player yang sedang duduk. Sebagai contoh bila terdapat 3 pemain duduk bermain, dan bandar memutuskan untuk membeli jackpot Rp 1.000, maka pada periode tersebut bandar akan membeli jackpot sebanyak 3xRp1.000 = Rp3.000.

Jackpot bukanlah suatu keharusan untuk dibeli, namun kami memberikan suatu fitur tambahan untuk member tercinta dari www.anekapoker.com.

Terdapat tiga pilihan harga jackpot yang bisa anda beli yaitu :100,500 dan 1000 rupiah.

Hadiah dari Multi jackpot system www.anekapoker.com

  1. Murni Kecil x 50 harga jackpot yang anda beli.
      (contoh:anda membeli 1000 maka:1000 X 50 = 50.000)
  2. Murni Besar x 50 harga jackpot yang anda beli
      (contoh:anda membeli 1000 maka:1000 X 50 = 50.000)
  3. BALAK x 200 harga jackpot yang anda beli
      (contoh:anda membeli 1000 maka:1000 X 200 = 200.000)
  4. ENAM DEWA x 6666 harga jackpot yang anda beli
      (contoh:anda membeli 1000 maka:1000 X 6666 = 6.666.000)

Demikian adalah penjelasan dari Multi Jackpot www.anekapoker.com terima kasih dan selamat bermain salam hoki dari kami

Ceme Jackpot Winner

TOP ENAM DEWA
No.TanggalNamaPriceWin
117/07 02:43GUSMUH9murni enam3,333,000
217/07 02:13HAYENI1313murni enam6,666,000
317/07 01:46REDBOX22murni enam666,600
417/07 01:45PO77IQBALmurni enam6,666,000
517/07 01:45BRAY1669DGmurni enam3,333,000
TOP BALAK
No.TanggalNamaPriceWin
117/07 03:01MARWIYAH24balak200,000
217/07 03:01BARUTO86balak200,000
317/07 03:01ATITYA29balak200,000
417/07 03:01VIP_31balak200,000
517/07 03:01MAMSII92balak200,000
LATEST JACKPOT
No.TanggalNamaPriceWin
117/07 03:02ADOET338murni kecil50,000
217/07 03:01MARWIYAH24murni besar50,000
317/07 03:01MARWIYAH24balak200,000
417/07 03:01TAUN101murni besar50,000
517/07 03:01WUWIKL7Z6Umurni kecil5,000
617/07 03:01TUAH_H86murni kecil25,000
717/07 03:01ROBI455murni kecil50,000
817/07 03:01CQIMmurni kecil25,000
917/07 03:01AKUROTOmurni kecil50,000
1017/07 03:01HENRYY12murni kecil50,000
1117/07 03:01LANGIT43murni besar50,000
1217/07 03:01DOLOP447murni besar50,000
1317/07 03:01PO77BOBYmurni besar50,000
1417/07 03:01BARUTO86balak200,000
1517/07 03:01MLAUN188murni besar5,000
1617/07 03:01ATITYA29balak200,000
1717/07 03:01VIP_31balak200,000
1817/07 03:01MAMSII92balak200,000
1917/07 03:01G0IZZAmurni besar50,000
2017/07 03:01CHUMAbalak200,000
2117/07 03:00TOGOK78murni kecil50,000
2217/07 03:00AYINKKKmurni kecil50,000
2317/07 03:00FAMSSS456murni kecil5,000
2417/07 03:00HOYOONG99murni kecil50,000
2517/07 03:00IPUL668murni kecil50,000
2617/07 03:00BOS3Amurni kecil50,000
2717/07 03:00B87NI813murni kecil5,000
2817/07 03:00FASYA23murni kecil50,000
2917/07 03:00IZIRD3N2NPmurni kecil50,000
3017/07 03:00INSOMIA13murni kecil25,000
3117/07 03:00TANTENINA9balak100,000
3217/07 03:00RICAT02balak20,000
3317/07 03:00GATOTT9murni kecil5,000
3417/07 03:00DURGA001murni kecil50,000
3517/07 03:00ONAD1murni besar50,000
3617/07 02:59MOWLY127murni besar50,000
3717/07 02:59OREO79murni kecil5,000
3817/07 02:59YYYOGImurni kecil5,000
3917/07 02:59HECA69ACEHmurni besar25,000
4017/07 02:59DWBTINSU45murni besar5,000
4117/07 02:59W0NG28murni kecil50,000
4217/07 02:59UBAS778murni kecil50,000
4317/07 02:59SAPAT53murni besar50,000
4417/07 02:59CANIBITE90murni kecil50,000
4517/07 02:59MP021973murni kecil50,000
4617/07 02:59APESGAJAHmurni kecil5,000
4717/07 02:59PMS09murni kecil50,000
4817/07 02:59JELITAAAAmurni besar50,000
4917/07 02:59MIMBAY11murni besar25,000
5017/07 02:59TOGOK78murni kecil50,000